RJTT

Tokyo Haneda International Airport

Airport
ICAO code
RJTT
IATA Code
HND
Summary
ICAO Region
APAC
ICAO Territory
Location

Ōta, Tokyo Metropolis

Serving
Tokyo
Elevation
21 ft
Coordinates
35° 32' 56" N , 139° 47' 2" E
KCC
Airport LOS
Parallel Runway Operation
Airport WX
Tropical Revolving Storm
Metar
RJTT 141830Z 11003KT 9999 FEW010 22/21 Q1009 NOSIG RMK 1CU010 A2982

The primary international airport serving the Greater Tokyo Area. It is located in Ōta, Tokyo, 14 km south of Tokyo Station, Japan.

Climatology

Humid subtropical climate (Köppen climate classification Cfa).

Runways

Designator Length Width Surface Rops
4/22 2499 61 ASP Yes/Yes
16L/34R 2999 61 ASP Yes/Yes
16R/34L 2999 61 ASP Yes/Yes

SKYbrary Partners:

Safety knowledge contributed by: